Location: Vlissingen
(51.4500°N, 3.5830°E)
Time: 12:23:45
(UTC+01:00)

N. Korean satellite - Pass Details

Date: 02 December 2021
Orbit: 447 x 491 km, 97.3° (Epoch: 21 January)

Event Time Altitude Azimuth Distance (km) Brightness Sun altitude
Rises 17:24:02 0° 180° (S) 2,536 10.6 -6.7°
Reaches altitude 10° 17:26:09 10° 186° (S) 1,653 9.7 -7.0°
Maximum altitude 17:29:35 46° 261° (W) 652 7.8 -7.5°
Drops below altitude 10° 17:32:59 10° 336° (NNW) 1,640 9.2 -8.0°
Sets 17:35:06 0° 342° (NNW) 2,514 10.1 -8.3°
